Location: Belfast
(54.5830°N, 5.9330°W)
Time: 14:09:40
(UTC+01:00)

ISS - Pass Details

Date: 27 May 2017
Orbit: 402 x 408 km, 51.6° (Epoch: 26 May)

Event Time Altitude Azimuth Distance (km) Brightness Sun altitude
Rises 23:02:00 0° 243° (WSW) 2,330 0.1 -8.4°
Reaches altitude 10° 23:04:09 10° 236° (SW) 1,470 -1.0 -8.5°
Maximum altitude 23:07:15 40° 166° (SSE) 621 -3.4 -8.8°
Drops below altitude 10° 23:10:22 10° 95° (E) 1,470 -1.3 -9.0°
Sets 23:12:31 0° 88° (E) 2,331 -0.3 -9.1°
